Meteo pe oră la Działdowo

Astăzi, 3 Martie, Miercuri

Timp Temperatura Precipitaţii Vânt Presiune Umiditate
00:00 +1°C° 0 mm 0 m/s 759 mmHg 91%
01:00 +1°C° 0 mm 0 m/s 759 mmHg 90%
02:00 +1°C° 0 mm 0 m/s 759 mmHg 89%
03:00 +1°C° 0 mm 0 m/s 758 mmHg 88%
04:00 +2°C° 0 mm 1 m/s 758 mmHg 87%
05:00 +2°C° 0 mm 1 m/s 758 mmHg 88%
06:00 +2°C° 0 mm 1 m/s 757 mmHg 89%
07:00 -1°C° 0 mm 2 m/s 758 mmHg 88%
08:00 +2°C° 0 mm 2 m/s 757 mmHg 83%
09:00 +3°C° 0 mm 2 m/s 757 mmHg 77%
10:00 +4°C° 0 mm 3 m/s 757 mmHg 72%
11:00 +5°C° 0 mm 3 m/s 756 mmHg 69%
12:00 +7°C° 0 mm 3 m/s 755 mmHg 66%
13:00 +6°C° 0 mm 4 m/s 755 mmHg 64%
14:00 +7°C° 0 mm 3 m/s 754 mmHg 65%
15:00 +7°C° 0 mm 3 m/s 753 mmHg 65%
16:00 +7°C° 0 mm 3 m/s 752 mmHg 66%
17:00 +5°C° 0 mm 3 m/s 752 mmHg 72%
18:00 +4°C° 0 mm 3 m/s 751 mmHg 79%
19:00 +3°C° 0 mm 3 m/s 751 mmHg 85%
20:00 +3°C° 0 mm 3 m/s 750 mmHg 86%
21:00 +2°C° 0 mm 3 m/s 749 mmHg 87%
22:00 +2°C° 0 mm 3 m/s 749 mmHg 88%
23:00 +2°C° 0 mm 3 m/s 748 mmHg 89%

Mâine, 4 Martie, Joi

Timp Temperatura Precipitaţii Vânt Presiune Umiditate
00:00 +1°C° 0 mm 3 m/s 747 mmHg 90%
01:00 0°C° 0 mm 4 m/s 747 mmHg 91%
02:00 0°C° 0 mm 4 m/s 746 mmHg 92%
03:00 0°C° 0 mm 4 m/s 745 mmHg 93%
04:00 0°C° 0 mm 4 m/s 744 mmHg 94%
05:00 0°C° 0 mm 4 m/s 744 mmHg 95%
06:00 +1°C° 0 mm 4 m/s 744 mmHg 95%
07:00 +1°C° 0 mm 5 m/s 744 mmHg 96%
08:00 +2°C° 0 mm 5 m/s 744 mmHg 91%
09:00 +2°C° 0 mm 6 m/s 744 mmHg 87%
10:00 +2°C° 0 mm 6 m/s 744 mmHg 83%
11:00 +2°C° 0 mm 6 m/s 744 mmHg 81%
12:00 +2°C° 0 mm 6 m/s 744 mmHg 80%
13:00 +2°C° 0 mm 6 m/s 744 mmHg 79%
14:00 +1°C° 0 mm 5 m/s 743 mmHg 81%
15:00 +1°C° 0 mm 5 m/s 743 mmHg 83%
16:00 0°C° 0 mm 5 m/s 743 mmHg 86%
17:00 0°C° 0.2 mm 5 m/s 743 mmHg 87%
18:00 -1°C° 0.2 mm 4 m/s 744 mmHg 87%
19:00 -2°C° 0.2 mm 4 m/s 744 mmHg 88%
20:00 -2°C° 0 mm 4 m/s 744 mmHg 86%
21:00 -3°C° 0 mm 4 m/s 744 mmHg 84%
22:00 -3°C° 0 mm 4 m/s 745 mmHg 82%
23:00 -3°C° 0 mm 4 m/s 745 mmHg 83%

Poimâine, 5 Martie, Vineri

Timp Temperatura Precipitaţii Vânt Presiune Umiditate
00:00 -4°C° 0 mm 3 m/s 745 mmHg 84%
01:00 -4°C° 0 mm 3 m/s 746 mmHg 85%
02:00 -4°C° 0 mm 3 m/s 746 mmHg 83%
03:00 -4°C° 0 mm 3 m/s 746 mmHg 82%
04:00 -4°C° 0 mm 3 m/s 746 mmHg 80%
05:00 -4°C° 0 mm 3 m/s 747 mmHg 80%
06:00 -4°C° 0 mm 3 m/s 747 mmHg 79%
07:00 -4°C° 0 mm 3 m/s 748 mmHg 79%
08:00 -3°C° 0 mm 4 m/s 748 mmHg 70%
09:00 -2°C° 0 mm 4 m/s 748 mmHg 61%
10:00 0°C° 0 mm 5 m/s 749 mmHg 53%
11:00 0°C° 0 mm 5 m/s 749 mmHg 48%
12:00 0°C° 0 mm 5 m/s 750 mmHg 43%
13:00 -1°C° 0 mm 6 m/s 750 mmHg 39%
14:00 0°C° 0 mm 5 m/s 750 mmHg 40%
15:00 -1°C° 0 mm 5 m/s 750 mmHg 42%
16:00 -1°C° 0 mm 5 m/s 751 mmHg 43%
17:00 -2°C° 0 mm 4 m/s 751 mmHg 48%
18:00 -2°C° 0 mm 3 m/s 752 mmHg 53%
19:00 -3°C° 0 mm 2 m/s 752 mmHg 58%
20:00 -3°C° 0 mm 2 m/s 753 mmHg 61%
21:00 -3°C° 0 mm 2 m/s 753 mmHg 64%
22:00 -3°C° 0 mm 2 m/s 754 mmHg 67%
23:00 -4°C° 0 mm 3 m/s 754 mmHg 67%

6 Martie, Sâmbătă

Timp Temperatura Precipitaţii Vânt Presiune Umiditate
00:00 -4°C° 0 mm 3 m/s 754 mmHg 68%
01:00 -4°C° 0 mm 4 m/s 755 mmHg 68%
02:00 -4°C° 0 mm 3 m/s 755 mmHg 69%
03:00 -4°C° 0 mm 3 m/s 755 mmHg 70%
04:00 -4°C° 0 mm 3 m/s 755 mmHg 71%
05:00 -5°C° 0 mm 3 m/s 755 mmHg 72%
06:00 -5°C° 0 mm 3 m/s 756 mmHg 73%
07:00 -4°C° 0 mm 2 m/s 756 mmHg 74%
08:00 -2°C° 0 mm 3 m/s 756 mmHg 66%
09:00 -1°C° 0 mm 3 m/s 756 mmHg 58%
10:00 0°C° 0 mm 3 m/s 756 mmHg 50%
11:00 -1°C° 0 mm 4 m/s 756 mmHg 48%
12:00 0°C° 0 mm 4 m/s 756 mmHg 46%
13:00 0°C° 0 mm 5 m/s 756 mmHg 45%
14:00 0°C° 0 mm 5 m/s 756 mmHg 45%
15:00 0°C° 0 mm 5 m/s 755 mmHg 46%
16:00 0°C° 0 mm 5 m/s 755 mmHg 47%
17:00 -1°C° 0 mm 5 m/s 754 mmHg 50%
18:00 -3°C° 0 mm 6 m/s 754 mmHg 53%
19:00 -3°C° 0 mm 6 m/s 753 mmHg 56%
20:00 -3°C° 0 mm 6 m/s 753 mmHg 56%
21:00 -3°C° 0 mm 7 m/s 752 mmHg 56%
22:00 -3°C° 0 mm 7 m/s 752 mmHg 56%
23:00 -4°C° 0 mm 8 m/s 751 mmHg 62%

7 Martie, Duminică

Timp Temperatura Precipitaţii Vânt Presiune Umiditate
00:00 -4°C° 0 mm 8 m/s 751 mmHg 67%
01:00 -4°C° 0 mm 8 m/s 750 mmHg 73%
02:00 -4°C° 0 mm 8 m/s 750 mmHg 76%
03:00 -4°C° 0 mm 9 m/s 749 mmHg 80%
04:00 -4°C° 0 mm 9 m/s 749 mmHg 83%
05:00 -4°C° 0 mm 9 m/s 748 mmHg 83%
06:00 -4°C° 0 mm 9 m/s 748 mmHg 83%
07:00 -4°C° 0 mm 9 m/s 748 mmHg 83%
08:00 -4°C° 0 mm 8 m/s 747 mmHg 82%
09:00 -4°C° 0 mm 8 m/s 747 mmHg 81%
10:00 -4°C° 0 mm 8 m/s 747 mmHg 80%
11:00 -2°C° 0 mm 8 m/s 747 mmHg 79%
12:00 -3°C° 0 mm 9 m/s 747 mmHg 79%
13:00 -1°C° 0 mm 9 m/s 747 mmHg 78%
14:00 -2°C° 0.1 mm 8 m/s 747 mmHg 81%
15:00 -2°C° 0.1 mm 8 m/s 746 mmHg 84%
16:00 -2°C° 0.1 mm 8 m/s 746 mmHg 87%
17:00 -2°C° 0.1 mm 7 m/s 746 mmHg 90%
18:00 -3°C° 0.1 mm 7 m/s 746 mmHg 92%
19:00 -3°C° 0.1 mm 6 m/s 746 mmHg 95%
20:00 -3°C° 0.5 mm 6 m/s 746 mmHg 95%
21:00 -2°C° 0.5 mm 5 m/s 746 mmHg 95%
22:00 -3°C° 0.5 mm 4 m/s 746 mmHg 95%
23:00 -3°C° 0.8 mm 4 m/s 746 mmHg 96%

8 Martie, Luni

Timp Temperatura Precipitaţii Vânt Presiune Umiditate
00:00 -4°C° 0.8 mm 4 m/s 746 mmHg 96%
01:00 -4°C° 0.8 mm 3 m/s 746 mmHg 96%
02:00 -4°C° 0.5 mm 3 m/s 746 mmHg 95%
03:00 -5°C° 0.5 mm 3 m/s 746 mmHg 93%
04:00 -5°C° 0.5 mm 3 m/s 746 mmHg 92%
05:00 -5°C° 0 mm 2 m/s 746 mmHg 91%
06:00 -5°C° 0 mm 2 m/s 747 mmHg 90%
07:00 -6°C° 0 mm 2 m/s 747 mmHg 88%
08:00 -5°C° 0 mm 2 m/s 748 mmHg 85%
09:00 -4°C° 0 mm 3 m/s 748 mmHg 81%
10:00 -3°C° 0 mm 4 m/s 749 mmHg 78%
11:00 -2°C° 0.1 mm 4 m/s 749 mmHg 74%
12:00 -2°C° 0.1 mm 5 m/s 749 mmHg 71%
13:00 -2°C° 0.1 mm 5 m/s 750 mmHg 67%
14:00 -2°C° 0 mm 5 m/s 750 mmHg 68%
15:00 -4°C° 0 mm 5 m/s 750 mmHg 68%
16:00 -4°C° 0 mm 5 m/s 750 mmHg 68%
17:00 -5°C° 0 mm 4 m/s 751 mmHg 73%
18:00 -7°C° 0 mm 4 m/s 752 mmHg 77%
19:00 -7°C° 0 mm 3 m/s 752 mmHg 82%
20:00 -6°C° 0 mm 2 m/s 753 mmHg 82%
21:00 -6°C° 0 mm 2 m/s 753 mmHg 82%
22:00 -6°C° 0 mm 2 m/s 754 mmHg 83%
23:00 -7°C° 0 mm 2 m/s 754 mmHg 83%
Arată mai mult

Formular de consimțământ

Meteoprog și furnizorii noștri de servicii pot stoca și accesa date personale, precum cookies, identificatori de dispozitiv sau alte tehnologii similare pe dispozitivul dumneavoastră și procesa astfel de date pentru a personaliza conținutul și reclamele, dar și pentru a oferi caracteristici de social media și pentru a analiza traficul.

  • Stocarea și/sau accesarea informațiilor pe dispozitivul dumneavoastră

    Cookies, identificatori de dispozitiv sau alte informații pot fi stocate sau accesate pe dispozitiv în scopurile indicate mai sus.

  • Reclame și conținut personalizat, evaluarea reclamelor și a conținutului, informații despre audiențe și dezvoltarea produselor

    Reclamele și conținutul pot fi personalizate pe baza unui profil. Pot fi adăugate date suplimentare pentru a personaliza mai bine reclamele și conținutul. Performanța reclamelor și conținutului poate fi măsurată. Pot fi obținute informații despre utilizatorii care au văzut reclamele și conținutul. Aceste date pot fi utilizate pentru a dezvolta sau îmbunătăți experiența utilizatorilor, sistemele și software-ul.

Dând clic pe ‘Sunt de acord’, permiteți utilizarea cookie-urilor menționate, a identificatorilor de dispozitiv, balizelor web sau altor tehnologii similare. Setările pot fi modificate din browser-ul dispozitivului dumneavoastră.

În anumite scopuri, interesele legitime pot prima asupra consimțământului. Puteți citi mai multe informații în acest sens în Politica privind Confidențialitatea Datelor și Cookie.